[[{"header":{"parameterUnit":"m.s-1","parameterCategory":1,"la1":30.2991,"la2":30.254,"lo1":-89.0895,"lo2":-89.0444,"dy":0.0017,"dx":0.0017,"nx":28,"ny":28,"refTime":"2024-07-19T09:00:00:Z","depth":0,"parameterNumber":2,"parameterNumberName":"U-component_of_WINDS"},"data":[0,0,0,0,0,0,0,0,0,0,0,0,0,0,0,0,0,0,0,0,0,0,0,0,0,0,0,0,0,0,0,0,0,0,0,0,0,0,0,0,0,0,0,0,0,0,0,0,0,0,0,0,0,0,0,0,0,0,0.9889,0.9886,0,0.961,0.9607,0.9604,0.9422,0.9421,0.942,0.9419,0.9131,0.9125,0.9118,0,0,0,0,0,0,0,0,0,0,0,0,0,1.026,1.0254,0.9889,0.9886,0.9882,0.9611,0.9607,0.9603,0.9423,0.9421,0.942,0.9419,0.9133,0.9126,0.9118,0,0,0,0,0,0,0,0,0,0,0,0,0,1.0052,1.0252,0.989,0.976,0.9745,0.9611,0.9607,0.9602,0.9423,0.9421,0.942,0.9418,0.9136,0.9126,0.9117,0.909,0,0,0.9086,0.9082,0,0,0,0,0,0,0,0,1.0064,1.0038,0.9782,0.9768,0.9752,0.9549,0.9632,0.943,0.9423,0.9545,0.9419,0.9417,0.9272,0.925,0.9202,0.9076,0.9064,0.9085,0.9079,0.9075,0.9072,0,0,0,0,0,0,0,1.0078,1.0049,0.9779,0.9779,0.976,0.9713,0.9682,0.9593,0.9421,0.9534,0.9521,0.949,0.9263,0.9212,0.9194,0.906,0.9086,0.9077,0.9071,0.9067,0.8892,0.8893,0,0,0,0,0,0,1.0114,1.0063,0.9787,0.977,0.9907,0.9708,0.9673,0.9616,0.9422,0.9391,0.9492,0.9483,0.923,0.9205,0.9183,0.9134,0.9075,0.9066,0.906,0.889,0.8892,0.8893,0,0,0,0,0,0,1.0123,1.0091,0.9799,0.9912,0.9872,0.9703,0.9641,0.9612,0.956,0.939,0.9358,0.9472,0.9227,0.9197,0.9113,0.9122,0.9061,0.9052,0.8889,0.8891,0.8893,0.904,0,0,0,0,0,0,1.0134,1.0095,1.0085,0.9914,0.9866,0.9736,0.9642,0.9607,0.9544,0.9529,0.9362,0.9333,0.9224,0.9129,0.9103,0.9107,0.9045,0.8887,0.889,0.8892,0.9034,0.9047,0.9058,0,0,0,0,0,1.0148,1.0138,1.0086,1.0053,0.985,0.9737,0.9709,0.9585,0.9546,0.9532,0.9422,0.9338,0.9126,0.9122,0.9091,0.9093,0.8886,0.8889,0.8892,0.9028,0.9044,0.9058,0,0,0,0,0,0,1.0315,1.0114,1.0053,0.9988,0.9881,0.9706,0.9686,0.9606,0.9508,0.9498,0.9347,0.931,0.9241,0.9158,0.9158,0.9053,0.8996,0.8993,0.911,0.9123,0.9136,0.9156,0.9037,0,0,0,0,0,1.0345,1.0271,1.0098,1.0057,1.0007,0.9856,0.9802,0.9715,0.9598,0.9551,0.9435,0.9323,0.923,0.9173,0.9078,0.9021,0.898,0.9007,0.9019,0.903,0.9028,0.8987,0.8995,0.8903,0.8903,0.8903,0,0,1.0405,1.0285,1.0248,1.0088,0.9995,0.9919,0.9819,0.9745,0.9686,0.9539,0.9452,0.9363,0.9228,0.9156,0.9119,0.9085,0.9045,0.9034,0.9044,0.9035,0.8991,0.9,0.9008,0.8905,0.8904,0.8904,0,0,1.0474,1.0379,1.0331,1.024,1.0099,0.9999,0.9988,0.9824,0.9759,0.9669,0.9556,0.9484,0.9329,0.9236,0.9168,0.9199,0.9117,0.9173,0.9236,0.9197,0.9205,0.921,0.9217,0.9222,0.9172,0.9173,0.9173,0,1.0565,1.0449,1.0317,1.0248,1.0179,1.0043,0.9992,0.9909,0.9746,0.97,0.9665,0.9464,0.9364,0.9266,0.9273,0.9225,0.9204,0.919,0.9215,0.9219,0.9222,0.9227,0.923,0.918,0.9179,0.9178,0.9178,0,1.0566,1.0486,1.0465,1.031,1.0239,1.018,1.0036,0.998,0.9898,0.9801,0.9709,0.9583,0.9459,0.943,0.9351,0.9319,0.9302,0.9244,0.9182,0.9241,0.9242,0.9243,0.9191,0.9188,0.9186,0.9184,0,0,1.0733,1.0504,1.0498,1.0424,1.0258,1.0193,1.0126,1.0004,0.9957,0.9848,0.9785,0.9656,0.9599,0.9522,0.943,0.9397,0.9424,0.9341,0.9335,0.9358,0.9377,0.942,0.9425,0.9369,0.9369,0.9369,0.9387,0,1.0775,1.0648,1.0526,1.0443,1.0365,1.0233,1.0174,1.0064,0.9971,0.9889,0.9785,0.9694,0.9628,0.958,0.9542,0.943,0.9425,0.9427,0.9306,0.9304,0.9342,0.9426,0.9472,0.9496,0.9387,0.9387,0.9387,0,1.0807,1.0703,1.0612,1.0449,1.0412,1.0361,1.0237,1.0163,1.0035,0.9968,0.9882,0.9784,0.9704,0.9653,0.9538,0.9541,0.9485,0.9422,0.942,0.9401,0.9348,0.9407,0.95,0.9503,0.9388,0.9388,0.9388,0,1.0933,1.077,1.0693,1.0634,1.0445,1.0411,1.033,1.02,1.0133,1.0025,0.998,0.9864,0.98,0.9712,0.9584,0.956,0.9481,0.9421,0.9421,0.9424,0.9409,0.9411,0.9491,0.9379,0.9379,0.9379,0.9378,0,1.099,1.0938,1.0746,1.0699,1.0636,1.0495,1.0436,1.0343,1.0228,1.0157,1.0037,0.9974,0.9811,0.9727,0.9627,0.9544,0.9517,0.9459,0.9433,0.9468,0.9475,0.9427,0.9421,0.9379,0.9379,0.9379,0.9379,0,1.1119,1.099,1.0896,1.0723,1.0678,1.0639,1.049,1.0437,1.0336,1.0248,1.022,1.0061,0.9955,0.982,0.9673,0.9605,0.9532,0.9494,0.9576,0.956,0.9566,0.9566,0.9615,0.9613,0.9507,0.9508,0.951,0,1.1163,1.112,1.0942,1.0886,1.0809,1.0722,1.0653,1.0512,1.0445,1.0293,1.0258,1.0143,1.0044,0.9881,0.9751,0.9636,0.9591,0.9617,0.9573,0.9609,0.9587,0.959,0.9583,0.9627,0.9629,0.963,0.9632,0,1.1253,1.119,1.1096,1.0978,1.0899,1.08,1.0695,1.0656,1.0492,1.0422,1.0313,1.0236,1.0084,0.997,0.9838,0.9752,0.9663,0.9647,0.964,0.9674,0.9722,0.9692,0.9602,0.9646,0.9644,0.9643,0.9642,0.9642,1.1337,1.1291,1.1158,1.1055,1.0962,1.0866,1.0806,1.0697,1.0604,1.0469,1.0392,1.0284,1.0152,0.9966,0.9883,0.9795,0.9762,0.9753,0.975,0.9749,0.9759,0.9739,0.9771,0.977,0.977,0.9769,0.9769,0,1.1416,1.1324,1.1232,1.1088,1.1007,1.0933,1.0811,1.0748,1.0655,1.054,1.0444,1.0317,1.0205,1.0066,0.9944,0.99,0.9856,0.9872,0.9872,0.9853,0.9798,0.9814,0.991,0.991,0.991,0.991,0.991,0.991,1.1448,1.1365,1.1286,1.1153,1.106,1.0954,1.0891,1.08,1.0707,1.0571,1.0477,1.0388,1.0261,1.0129,1.0022,0.9984,0.9943,0.9971,0.992,0.987,0.9858,0.9846,0.986,0.9964,0.9964,0.9982,0.9982,0.9982]},{"header":{"parameterUnit":"m.s-1","parameterCategory":1,"la1":30.2991,"la2":30.254,"lo1":-89.0895,"lo2":-89.0444,"dy":0.0017,"dx":0.0017,"nx":28,"ny":28,"refTime":"2024-07-19T09:00:00:Z","depth":0,"parameterNumber":3,"parameterNumberName":"V-component_of_WINDS"},"data":[0,0,0,0,0,0,0,0,0,0,0,0,0,0,0,0,0,0,0,0,0,0,0,0,0,0,0,0,0,0,0,0,0,0,0,0,0,0,0,0,0,0,0,0,0,0,0,0,0,0,0,0,0,0,0,0,0,0,5.3383,5.3384,0,5.3441,5.3441,5.3442,5.3431,5.343,5.3429,5.3428,5.3483,5.3485,5.3488,0,0,0,0,0,0,0,0,0,0,0,0,0,5.3265,5.3267,5.3383,5.3384,5.3385,5.3441,5.3441,5.3442,5.3432,5.343,5.3429,5.3428,5.3482,5.3485,5.3488,0,0,0,0,0,0,0,0,0,0,0,0,0,5.3318,5.3268,5.3383,5.3386,5.3387,5.344,5.3441,5.3442,5.3432,5.343,5.3429,5.3427,5.3481,5.3485,5.3488,5.3541,0,0,5.3499,5.3501,0,0,0,0,0,0,0,0,5.3315,5.3323,5.3385,5.3386,5.3387,5.3427,5.342,5.3475,5.3432,5.3415,5.3428,5.3427,5.3466,5.347,5.3484,5.3543,5.3546,5.35,5.3502,5.3503,5.3504,0,0,0,0,0,0,0,5.3312,5.332,5.3406,5.3386,5.3387,5.3385,5.3391,5.343,5.3448,5.3416,5.3416,5.3423,5.3466,5.3481,5.3485,5.3546,5.35,5.3503,5.3505,5.3506,5.3655,5.3657,0,0,0,0,0,0,5.3307,5.3317,5.3404,5.3408,5.3347,5.3388,5.3395,5.3416,5.3447,5.3451,5.3424,5.3422,5.3475,5.3481,5.3487,5.3552,5.3503,5.3507,5.3509,5.3653,5.3656,5.3658,0,0,0,0,0,0,5.3305,5.3315,5.3402,5.3362,5.3373,5.3392,5.3416,5.3418,5.3433,5.3453,5.3456,5.3436,5.3474,5.3482,5.3529,5.3554,5.3508,5.3512,5.3651,5.3654,5.3657,5.3681,0,0,0,0,0,0,5.3301,5.3314,5.3334,5.3363,5.3375,5.3442,5.3417,5.342,5.344,5.3438,5.3465,5.3468,5.3474,5.3523,5.3532,5.3558,5.3514,5.3649,5.3653,5.3656,5.3678,5.3684,5.369,0,0,0,0,0,5.3297,5.3337,5.3335,5.3345,5.34,5.3443,5.345,5.3457,5.3442,5.3462,5.3476,5.3468,5.3551,5.3528,5.3538,5.3565,5.3647,5.3652,5.3655,5.3675,5.3683,5.369,0,0,0,0,0,0,5.3307,5.334,5.3338,5.3389,5.3414,5.3442,5.3466,5.3464,5.3493,5.3489,5.3496,5.3502,5.355,5.3562,5.3537,5.362,5.3597,5.3603,5.3609,5.3616,5.3622,5.3616,5.3517,0,0,0,0,0,5.3316,5.3349,5.3376,5.3417,5.3431,5.3447,5.3466,5.347,5.3495,5.3504,5.3521,5.3546,5.3578,5.3598,5.3628,5.3682,5.3688,5.3706,5.3711,5.3716,5.372,5.3752,5.376,5.3671,5.3671,5.3671,0,0,5.3332,5.3355,5.3374,5.342,5.344,5.3474,5.3455,5.3491,5.3516,5.3509,5.3554,5.3569,5.3597,5.3647,5.367,5.3659,5.3748,5.3721,5.3725,5.3727,5.3757,5.3765,5.3773,5.3674,5.3673,5.3673,0,0,5.338,5.34,5.3438,5.346,5.3492,5.3503,5.3513,5.3543,5.3552,5.3599,5.3595,5.3626,5.368,5.3701,5.3718,5.3781,5.3775,5.3791,5.382,5.3851,5.3858,5.3864,5.3887,5.3895,5.3796,5.3796,5.3796,0,5.3396,5.3447,5.3458,5.3496,5.3517,5.3516,5.3555,5.3575,5.3614,5.3629,5.3617,5.3688,5.3706,5.3763,5.3779,5.3794,5.3805,5.3786,5.3856,5.3863,5.3869,5.389,5.3899,5.3798,5.3798,5.3798,5.3797,0,5.3466,5.3503,5.353,5.3571,5.3595,5.3633,5.365,5.3674,5.3678,5.3691,5.374,5.3763,5.3799,5.3814,5.3816,5.3872,5.3865,5.3855,5.3831,5.3879,5.3899,5.3907,5.38,5.38,5.3799,5.3799,0,0,5.3515,5.3567,5.3576,5.3596,5.3634,5.3662,5.3702,5.374,5.3761,5.379,5.3823,5.3872,5.3865,5.3885,5.3891,5.3918,5.3968,5.3905,5.3906,5.3915,5.4032,5.4038,5.4048,5.3966,5.3967,5.3969,5.403,0,5.3566,5.3637,5.3651,5.3712,5.3747,5.375,5.3786,5.3813,5.3828,5.386,5.3876,5.3911,5.3898,5.3911,5.3939,5.3956,5.3991,5.3952,5.3996,5.3997,5.3987,5.4058,5.4064,5.412,5.4038,5.4039,5.404,0,5.3632,5.3667,5.3733,5.377,5.3785,5.3816,5.3854,5.3885,5.3917,5.3927,5.3953,5.3957,5.3999,5.3977,5.4036,5.4009,5.4029,5.4041,5.4044,5.4046,5.402,5.4061,5.4138,5.4146,5.4053,5.4052,5.4051,0,5.3662,5.3724,5.3773,5.379,5.3835,5.3857,5.3876,5.3908,5.3931,5.3965,5.398,5.4018,5.4038,5.4067,5.4082,5.4065,5.4141,5.4119,5.4149,5.4149,5.4162,5.416,5.4241,5.4178,5.4178,5.4178,5.4177,0,5.3715,5.3755,5.3787,5.3816,5.3863,5.388,5.3925,5.3944,5.3973,5.4006,5.4012,5.4043,5.4061,5.4096,5.4108,5.4156,5.4165,5.4173,5.4176,5.4172,5.4171,5.4183,5.4178,5.418,5.4179,5.4179,5.4179,0,5.3753,5.3776,5.3829,5.387,5.3881,5.3913,5.3948,5.3977,5.3995,5.4038,5.4049,5.4076,5.4117,5.4136,5.4186,5.4195,5.4249,5.4249,5.4238,5.4239,5.4267,5.4264,5.4357,5.4371,5.43,5.43,5.4301,0,5.3785,5.3816,5.3862,5.3886,5.3908,5.3946,5.3971,5.3991,5.4017,5.406,5.4084,5.4127,5.4161,5.4227,5.4251,5.4291,5.4291,5.4321,5.4296,5.4293,5.4291,5.4288,5.4292,5.4324,5.4325,5.4326,5.4326,0,5.3838,5.385,5.3887,5.393,5.3961,5.3995,5.4028,5.4047,5.4073,5.4102,5.4146,5.4173,5.4227,5.4269,5.4312,5.4331,5.4333,5.4335,5.4344,5.4339,5.4331,5.4335,5.4249,5.4331,5.4331,5.433,5.433,5.433,5.3873,5.3903,5.3941,5.3983,5.4012,5.4044,5.4075,5.4099,5.4136,5.4183,5.4193,5.424,5.4276,5.4333,5.4355,5.4392,5.4385,5.4398,5.4401,5.4403,5.4405,5.4328,5.44,5.44,5.44,5.44,5.44,0,5.3927,5.3953,5.3992,5.4041,5.4075,5.4078,5.4117,5.4145,5.4186,5.4221,5.4257,5.4309,5.4351,5.4381,5.4424,5.4449,5.4451,5.4459,5.4456,5.4461,5.4409,5.4397,5.4457,5.4457,5.4457,5.4457,5.4457,5.4457,5.3958,5.4009,5.4026,5.4092,5.4118,5.4166,5.4188,5.4219,5.4247,5.4305,5.4342,5.4362,5.4395,5.4442,5.4482,5.449,5.4505,5.4513,5.4521,5.4471,5.4464,5.4459,5.4447,5.4517,5.4517,5.457,5.457,5.4571]}]]